Regional Weather Roundup
Issued by NWS

Home | Current Version | Previous Version | Graphics & Text | Print | Product List | Glossary On
Versions: 1 2 3 4 5 6 7 8 9 10 11 12 13 14 15 16 17 18 19 20 21 22 23 24 25 26 27
000
ASUS45 KCYS 290210
RWRWY

WYOMING REGIONAL WEATHER ROUNDUP
NATIONAL WEATHER SERVICE CHEYENNE WY
800 PM MDT FRI APR 28 2017

NOTE:  "FAIR" INDICATES FEW OR NO CLOUDS BELOW 12,000 FEET
WITH NO SIGNIFICANT WEATHER AND/OR OBSTRUCTIONS TO VISIBILITY.

WYZ001-290300-
YELLOWSTONE NATIONAL PARK

CITY           SKY/WX    TMP DP  RH WIND       PRES   REMARKS
LK YELLOWSTONE   N/A     30  20  66 CALM      30.06R
W YELLOWSTONE  NOT AVBL

$$
WYZ002>013-054>058-071-098>099-290300-
NORTHERN WYOMING

CITY           SKY/WX    TMP DP  RH WIND       PRES   REMARKS
JACKSON        NOT AVBL
CODY           FAIR      36  30  79 N9        30.12R WCI  29
GREYBULL       CLOUDY    44  26  49 NW10      30.07R
WORLAND        CLOUDY    38  35  89 SW8       30.10R WCI  32
SHERIDAN       CLOUDY    36  33  89 CALM      30.14R
BUFFALO        CLOUDY    33  23  66 SW7       30.14R WCI  27
GILLETTE       CLOUDY    35  29  78 W8        30.12R WCI  29
HULETT         FAIR      41  27  56 E3        30.13R
NEWCASTLE      FAIR      37  23  56 E6        30.12R WCI  33

$$
WYZ014>020-022>026-101>103-290300-
CENTRAL WYOMING

CITY           SKY/WX    TMP DP  RH WIND       PRES   REMARKS
BIG PINEY      CLOUDY    35  13  40 E15       29.97R WCI  25
PINEDALE       FAIR      32  16  51 N10       29.98R WCI  24
DUBOIS         LGT SNOW  28  23  80 SE14G23   30.03R WCI  17
LANDER         SNOW      29  29 100 E7        30.09R VSB 1/2 WCI  22
RIVERTON       LGT SNOW  30  30 100 E5        30.09R VSB 3/4 WCI  25
CASPER         LGT SNOW  30  26  85 E15       30.09R FOG     WCI  19
DOUGLAS        FLURRIES  30  27  88 E6        30.12R WCI  24

$$
WYZ021-027>030-104>119-290300-
SOUTHERN WYOMING

CITY           SKY/WX    TMP DP  RH WIND       PRES   REMARKS
EVANSTON       CLOUDY    29  28  96 N10       29.97R WCI  20
KEMMERER       LGT SNOW  28  27  93 E12G18    29.98R VSB 3/4 WCI  18
FORT BRIDGER   CLOUDY    31  26  78 E10       30.00R WCI  23
ROCK SPRINGS   LGT SNOW  30  24  78 NE25G32   29.95R WCI  16
DIXON            N/A     37  27  67 NE14      29.88R WCI  28
RAWLINS        MOCLDY    28  21  75 E22G30    29.96R WCI  14
SARATOGA       FAIR      32  30  93 S7        29.91R WCI  26
LARAMIE        CLOUDY    25  19  78 E21       29.95R WCI  11
CHEYENNE       CLOUDY    27  25  92 NE16G23   30.01R WCI  15
TORRINGTON     LGT SNOW  33  32  96 N6        30.08R FOG     WCI  28
PINE BLUFFS    CLOUDY    30  30 100 NE14G20   30.03R WCI  20

$$




USA.gov is the U.S. government's official web portal to all federal, state and local government web resources and services.